User: anonymous   Login
Location: Caltech
(34.1382°N, 118.1253°W)
Time: 21:19:40
(UTC-07:00)
Language:

PAYLOAD A - Orbit

View from above orbital plane
View from above orbital plane
View from above satellite
View from above satellite

Ground track
Ground track

The orbit data is extracted from the following two-line orbital elements,

1 27840U 03031A   16242.93480166 +.00000002 +00000-0 +14199-4 0  9990
2 27840 098.1977 247.1682 0096994 277.2355 081.7816 14.38862108691336
Epoch (UTC): 29 August 2016 22:26:06
Eccentricity: 0.0096994
inclination: 98.1977°
perigee height: 693 km
apogee height: 831 km
right ascension of ascending node: 247.1682°
argument of perigee: 277.2355°
revolutions per day: 14.38862108
mean anomaly at epoch: 81.7816°
orbit number at epoch: 69133

The dashed part of the orbit path shows where the satellite is in the earth's shadow,  

DLR